Home > Weather > Narowal > Past weeks

Flag for Pakistan Past Weather in Narowal, Pakistan — Yesterday and Last 2 Weeks

Now
95 °F

Scattered clouds.


Feels Like: 113 °F
Forecast: 83 / 96 °F
Wind: 8 mph from Southeast

Location: Amritsar Airport

Current Time: Jul 1, 2016 at 11:21:47 AM

Latest Report: Jul 1, 2016 at 10:30 AM


Visibility: 2 mi

Pressure: 29.45 "Hg

Humidity: 60%

Dew Point: 79 °F

Location of NarowalLocation

Past Weather in Narowal — Graph

°F

Narowal Temperature Yesterday

Maximum temperature yesterday: 102 °F (at 3:30 PM)
Minimum temperature yesterday: 88 °F (at 1:30 AM)
Average temperature yesterday: 94 °F

High & Low Weather Summary for the Past Weeks

 TemperatureHumidityPressure
High102 °F (Jun 25, 1:30 PM)100% (Jun 17, 8:00 AM)29.68 "Hg (Jun 17, 8:00 AM)
Low73 °F (Jun 22, 10:00 AM)39% (Jun 24, 5:30 PM)29.39 "Hg (Jul 1, 3:00 AM)
Average90 °F69%29.55 "Hg
* Reported Jun 16 10:00 AM — Jul 1 10:00 AM, Narowal, Weather by CustomWeather, © 2016

Note: Actual official high and low records may vary slightly from our data, if they occured in-between our weather recording intervals... More about our weather records

Advertising

Narowal Weather History for the Previous 24 Hours

Scroll right to see more
 ConditionsComfort  
Time TempWeatherWind HumidityBarometerVisibility
10:00 AM
Fri, Jul 1
93 °FScattered clouds.9 mph63%29.45 "Hg2 mi
8:30 AM91 °FScattered clouds.9 mph71%29.45 "Hg1 mi
8:00 AM90 °FFog.10 mph79%29.45 "Hg1 mi
7:30 AM90 °FFog.8 mph84%29.45 "Hg1 mi
7:00 AM90 °FFog.8 mph84%29.45 "Hg1 mi
6:30 AM90 °FFog.6 mph84%29.42 "Hg1 mi
6:00 AM90 °FFog.2 mph84%29.42 "Hg1 mi
5:30 AM90 °FFog.No wind84%29.42 "Hg1 mi
5:00 AM90 °FFog.No wind84%29.42 "Hg1 mi
4:30 AM90 °FFog.No wind84%29.42 "Hg1 mi
4:00 AM90 °FFog.No wind84%29.42 "Hg1 mi
3:00 AM90 °FFog.2 mph84%29.39 "Hg1 mi
2:00 AM90 °FFog.No wind84%29.42 "Hg1 mi
1:30 AM91 °FFog.No wind80%29.42 "Hg1 mi
1:00 AM91 °FFog.No wind80%29.42 "Hg1 mi
12:30 AM91 °FFog.3 mph75%29.45 "Hg1 mi
12:00 AM91 °FFog.3 mph75%29.45 "Hg1 mi
11:30 PM
Thu, Jun 30
91 °FPassing clouds.No wind75%29.45 "Hg1 mi
11:00 PM93 °FPassing clouds.No wind67%29.45 "Hg1 mi
10:30 PM93 °FPassing clouds.No wind67%29.47 "Hg2 mi
10:00 PM93 °FPassing clouds.No wind71%29.47 "Hg2 mi
9:30 PM95 °FPassing clouds.No wind63%29.45 "Hg2 mi
9:00 PM95 °FPassing clouds.No wind63%29.45 "Hg2 mi
8:30 PM95 °FPassing clouds.No wind63%29.45 "Hg2 mi
8:00 PM97 °FPassing clouds.No wind60%29.42 "Hg2 mi
7:30 PM97 °FScattered clouds.2 mph56%29.42 "Hg2 mi
7:00 PM99 °FHaze.2 mph50%29.42 "Hg2 mi
6:30 PM99 °FHaze.No wind50%29.42 "Hg2 mi
6:00 PM100 °FHaze.3 mph47%29.42 "Hg2 mi
5:30 PM100 °FScattered clouds.3 mph47%29.42 "Hg2 mi
5:00 PM100 °FScattered clouds.2 mph47%29.42 "Hg2 mi
3:30 PM102 °FScattered clouds.2 mph45%29.45 "Hg1 mi
3:00 PM100 °FScattered clouds.2 mph47%29.47 "Hg1 mi
2:30 PM100 °FScattered clouds.6 mph50%29.47 "Hg1 mi
1:30 PM100 °FScattered clouds.3 mph47%29.50 "Hg1 mi
1:00 PM100 °FScattered clouds.2 mph50%29.53 "Hg1 mi
12:30 PM99 °FBroken clouds.No wind53%29.53 "Hg1 mi
11:30 AM99 °FBroken clouds.2 mph50%29.56 "Hg1 mi
11:00 AM97 °FBroken clouds.3 mph53%29.56 "Hg1 mi
Weather by CustomWeather, © 2016

See weather overviewHow to use our weather pages